Miscellaneous Local Product
Issued by NWS Hastings, NE

Home | Current Version | Previous Version | Text Only | Print | Product List | Glossary On
Versions: 1 2 3 4 5 6 7 8 9 10 11 12 13 14 15 16 17 18 19 20 21 22 23 24 25 26 27 28 29 30 31 32 33 34 35 36 37 38 39 40 41 42 43 44 45 46 47 48 49 50
000
AXUS43 KGID 020002
MISGRI

GID CWA HOURLY WEATHER ROUNDUP
NATIONAL WEATHER SERVICE HASTINGS NE
600 PM CST SUN FEB 01 2015

NOTE: "FAIR" INDICATES FEW OR NO CLOUDS BELOW 12,000 FEET WITH NO
SIGNIFICANT WEATHER AND/OR OBSTRUCTIONS TO VISIBILITY.

...SOUTH CENTRAL NEBRASKA...

CITY           SKY/WX    TMP DP  RH WIND       PRES   REMARKS
GRAND ISLAND   CLOUDY     5  -1  76 NW23      30.30R BLWGSNOWWCI -17
HASTINGS       MOCLDY     6   1  80 N23G32    30.27R BLWGSNOWWCI -15
KEARNEY        CLOUDY     9   0  66 NW20G30   30.29R WCI -11
ORD            CLEAR      4  -4  69 NW18      30.30S WCI -16
YORK           LGT SNOW   7   3  85 N17G25    30.26R WCI -12
AURORA         CLOUDY     6   2  81 N23       30.28R WCI -15
LEXINGTON      CLOUDY    10   2  71 NW15      30.30R WCI  -7
HOLDREGE       CLOUDY     9   2  72 N24G30    30.29R HAZE    WCI -11
HEBRON         MOCLDY     9   3  78 NW13G18   30.27R HAZE    WCI  -7

...NEBRASKA PANHANDLE...

CITY           SKY/WX    TMP DP  RH WIND       PRES   REMARKS
CHADRON        CLEAR     11   4  73 SE5       30.23F WCI   3
ALLIANCE       CLEAR      2  -3  80 E5        30.19F WCI  -8
SCOTTSBLUFF    CLEAR     15   8  73 SE9       30.20S WCI   3
SIDNEY         CLEAR     12   4  70 NE5       30.21S WCI   4

...WESTERN AND NORTH CENTRAL NEBRASKA...

CITY           SKY/WX    TMP DP  RH WIND       PRES   REMARKS
VALENTINE      CLEAR      3  -3  76 NW6       30.31S WCI  -8
AINSWORTH      CLEAR      3  -3  75 NW8       30.29F WCI -10
ONEILL         CLEAR      3  -2  79 NW16G24   30.32R WCI -16
BROKEN BOW     CLEAR      5  -3  69 NW15      30.28R WCI -13
IMPERIAL       CLEAR     11   2  67 N14       30.27S WCI  -5
NORTH PLATTE   CLEAR      8  -1  66 NW12      30.30R WCI  -7
MCCOOK         CLEAR     13   2  61 NW22      30.31R WCI  -6

...EASTERN NEBRASKA...

CITY           SKY/WX    TMP DP  RH WIND       PRES   REMARKS
NORFOLK        CLOUDY     5  -1  76 NW24      30.28R HAZE    WCI -17
SO SIOUX CITY  LGT SNOW   9   4  80 NW18      30.28R WCI -10
TEKAMAH        MIX PCPN  11   5  77 NW22      30.26R WCI  -8
ALBION         PTCLDY     6  -1  73 N25G31    30.28R HAZE    WCI -17
OMAHA EPPLEY   BLWGSNOW  12   7  80 N25G37    30.21R VSB 1   WCI  -8
MILLARD        LGT SNOW  12   7  79 NW7       30.22R WCI   2
LINCOLN        LGT SNOW   8   3  80 N21G31    30.27R WCI -12
NEBRASKA CITY  LGT SNOW  12   8  82 N16G26    30.17R WCI  -4
BEATRICE       CLOUDY     8   4  82 N17       30.24R FOG     WCI -10
FALLS CITY     LGT SNOW  13   8  81 NW18G28   30.17R WCI  -4

...NORTHERN KANSAS...

CITY           SKY/WX    TMP DP  RH WIND       PRES   REMARKS
GOODLAND       CLEAR     13   5  70 N21G32    30.24R WCI  -5
HILL CITY      MOCLDY    14   5  67 NW23G32   30.31R WCI  -5
NORTON         CLEAR     10   0  61 NW15      30.29R WCI  -6
PHILLIPSBURG   CLOUDY    16   7  67 NW20G25   30.31R WCI  -1
SMITH CENTER   CLOUDY    10   3  72 NW22G30   30.30R WCI  -9
BELOIT         CLOUDY    12   9  85 NW18G26   30.30R WCI  -5
HAYS           MOCLDY    16   1  53 N23G30    30.28R WCI  -2
RUSSELL        MOCLDY    15   8  73 N20       30.27R WCI  -2
CONCORDIA      LGT SNOW  10   4  76 NW25G32   30.27R WCI -11
SALINA         CLOUDY    14   7  73 N26G38    30.27R WCI  -6
TOPEKA         FLURRIES  15   7  70 NW21G32   30.18R WCI  -2



USA.gov is the U.S. government's official web portal to all federal, state and local government web resources and services.